STARLINK-2449, 48112

Orbit data source: Space-Track

STARLINK-2449, 48112 is a payload satellite owned by SpaceX/Seattle (US) in LEO that was launched on Wed, 07 Apr 2021 UTC via an FALCON 9 launch vehicle from the Air Force Eastern Test Range (AFETR). Payload-class satellites include a variety of spacecraft equipped with specific instruments for various scientific and technological missions. These include communications satellites like Starlink; space stations such as the ISS; scientific satellites like the Hubble; Earth observation satellites from companies like Planet Labs, Umbra, and HawkEye 360; GPS; miniature CubeSats for education and research; and military/defense satellites.

Loading next visibility...
Identifier
48112, 2021-027W
Orbit
LEO
Country
Flag of USUS
Related business
Manufacturer
SpaceX/Seattle
Mission
Operational Commercial Communications
Bus & Motor
STARLINK, Unknown motor
Mass
260 kg wet, ~248 kg dry
Launch date (UTC)
2021-04-07 (5 years ago)
Launch vehicle
FALCON 9
Launch site
Air Force Eastern Test Range (AFETR)
Object type
Payload
Rocket body
Debris
Shape & HBR
Box + 1 Pan, 10.1 m
Radar Cross Section
13.562 m², Large (>1 m²)

Expand to show TLE details & history
Last TLE update: 2 days ago

TLE from 2 days ago
0 STARLINK-2449
1 48112U 21027W   26171.37352279  .00001370  00000-0  55911-4 0  9999
2 48112  53.1618  50.0723 0001590  92.6359 267.4824 15.31701159288215
Epoch: 2026-06-20T08:57Z
TLE epoch observation values (Epoch: 2026-06-20T08:57:52.369Z)
Latitude
-0.00004°
Longitude
7.01499°
Altitude
471.685 km
Speed
7.631 km/s
True Right ascension
03h 20m 17s
True Declination
0° 00' 00"
Sunlit
Object was in daylight at epoch
Visualization orbit readout
Latitude
Unknown
Longitude
Unknown
Altitude
Unknown
Speed
Unknown
Apparent Right ascension
Unknown
Apparent Declination
Unknown
Sunlit
N/A
Visualization observer readout
Local Sidereal Time
21:25:32
Azimuth
Unknown
Elevation
Unknown
Doppler factor
Unknown
Orbital elements
Apogee altitude
472.082 km
Perigee altitude
469.904 km
Semi-major axis
6,849.13 km
Eccentricity
0.00016
Inclination
53.1618°
RAAN
50.0723°
Arg. of periapsis
92.6359°
True anomaly
267.4642°
Mean anomaly
267.4824°
Eccentric anomaly
267.4733°
Mean motion
3.82904 °/min
Orbital period
94.02 mins
BSTAR
0.000055911
Loading maneuver chart data...
Computing Atmospheric mass density...

Documentation

Showing up to 5 results
|